Location: Vancouver
(49.2500°N, 123.1330°W)
Time: 17:29:01
(UTC-07:00)

Iridium 21 - Visible Passes

Search period start: 30 July 2016 00:00
Search period end: 09 August 2016 00:00
Orbit: 776 x 779 km, 86.4° (Epoch: 30 July)

Date Brightness Start Highest point End Pass type
(mag) Time Alt. Az. Time Alt. Az. Time Alt. Az.
30 Jul 8.1 03:10:20 10° ESE 03:13:13 15° ENE 03:16:07 10° NE visible
30 Jul 5.5 04:47:59 10° S 04:53:13 83° W 04:58:28 10° N visible
31 Jul 6.1 04:14:37 10° SSE 04:19:44 58° E 04:24:51 10° N visible
01 Aug 7.0 03:41:42 10° SSE 03:46:21 34° E 03:51:02 10° NNE visible
02 Aug 7.8 03:09:20 10° SE 03:13:07 21° ENE 03:16:54 10° NNE visible
02 Aug 5.6 04:48:12 10° SSW 04:53:22 61° W 04:58:33 10° N visible
03 Aug 8.2 02:38:01 10° E 02:39:59 12° ENE 02:41:59 10° NE visible
03 Aug 5.6 04:14:35 10° S 04:19:48 80° E 04:25:03 10° N visible
04 Aug 6.4 03:41:24 10° SSE 03:46:22 47° E 03:51:21 10° NNE visible
05 Aug 7.3 03:08:41 10° SE 03:13:03 28° E 03:17:26 10° NNE visible
05 Aug 6.0 04:48:36 10° SSW 04:53:33 44° W 04:58:33 10° N visible
06 Aug 7.9 02:36:36 10° ESE 02:39:51 17° ENE 02:43:06 10° NE visible
06 Aug 5.5 04:15:23 14° S 04:19:56 75° W 04:25:10 10° N visible
07 Aug 5.8 03:42:17 16° SSE 03:46:24 65° E 03:51:35 10° N visible
08 Aug 6.7 03:09:10 15° SE 03:13:01 38° E 03:17:49 10° NNE visible
08 Aug 6.4 04:49:40 12° SW 04:53:48 32° WNW 04:58:29 10° NNW visible
